Total_Precipitation_Accumulation
0.58 0.52 0.48 0.49 0.45 0.40 0.42 0.46 0.48 0.47 0.47 0.50 0.51 0.49 0.51 0.46 0.37 0.35 0.30 0.28 0.28 0.40 0.63 0.87 1.10 1.34 1.53 1.60 1.60 1.46 1.36 1.23 1.10 1.02 0.99 1.00 1.09 1.19 1.25 1.22 1.27 1.32 1.30
0.67 0.64 0.57 0.56 0.54 0.49 0.47 0.52 0.53 0.53 0.52 0.51 0.48 0.46 0.47 0.44 0.37 0.36 0.34 0.34 0.32 0.35 0.51 0.72 0.92 1.15 1.44 1.72 1.84 1.76 1.57 1.47 1.39 1.30 1.17 1.12 1.14 1.21 1.31 1.37 1.23 1.19 1.17
0.74 0.67 0.63 0.58 0.57 0.58 0.56 0.53 0.52 0.57 0.55 0.51 0.49 0.48 0.46 0.43 0.40 0.40 0.40 0.38 0.39 0.38 0.45 0.61 0.77 0.94 1.19 1.56 1.94 2.08 1.85 1.71 1.67 1.61 1.42 1.28 1.21 1.26 1.31 1.41 1.44 1.36 1.27
0.76 0.78 0.71 0.65 0.64 0.67 0.67 0.62 0.53 0.54 0.54 0.53 0.51 0.50 0.48 0.46 0.42 0.40 0.44 0.42 0.42 0.41 0.41 0.50 0.62 0.75 0.99 1.26 1.59 1.99 2.09 1.97 1.90 1.87 1.73 1.58 1.41 1.38 1.41 1.47 1.56 1.58 1.53
0.71 0.75 0.75 0.73 0.76 0.79 0.76 0.73 0.65 0.65 0.63 0.61 0.62 0.60 0.59 0.57 0.54 0.49 0.49 0.48 0.46 0.43 0.42 0.45 0.53 0.57 0.74 1.01 1.31 1.67 1.98 2.07 2.00 1.98 1.91 1.82 1.67 1.51 1.50 1.56 1.61 1.71 1.75
0.72 0.78 0.78 0.77 0.81 0.84 0.85 0.89 0.84 0.75 0.70 0.71 0.77 0.75 0.75 0.72 0.64 0.54 0.52 0.54 0.51 0.46 0.49 0.49 0.50 0.48 0.55 0.74 1.03 1.38 1.75 2.00 2.09 2.09 2.08 2.05 1.94 1.79 1.61 1.59 1.61 1.74 1.91
0.73 0.80 0.81 0.79 0.81 0.78 0.74 0.73 0.80 0.80 0.74 0.72 0.79 0.78 0.72 0.70 0.64 0.56 0.57 0.64 0.68 0.66 0.64 0.66 0.64 0.57 0.56 0.64 0.74 0.96 1.31 1.71 2.03 2.14 2.15 2.16 2.15 2.09 1.95 1.81 1.76 1.82 2.00
0.77 0.79 0.85 0.84 0.79 0.77 0.72 0.67 0.67 0.71 0.69 0.67 0.75 0.81 0.74 0.67 0.59 0.50 0.51 0.59 0.67 0.73 0.75 0.74 0.75 0.75 0.68 0.63 0.56 0.60 0.77 1.16 1.65 2.10 2.29 2.34 2.45 2.47 2.36 2.18 2.04 2.04 2.13
0.76 0.75 0.84 0.91 0.86 0.79 0.73 0.69 0.68 0.68 0.68 0.64 0.66 0.86 0.88 0.68 0.51 0.39 0.39 0.43 0.48 0.53 0.57 0.60 0.67 0.72 0.75 0.73 0.63 0.52 0.52 0.74 1.14 1.69 2.24 2.57 2.78 3.00 2.94 2.67 2.45 2.32 2.30
0.80 0.77 0.83 0.90 0.94 0.84 0.73 0.70 0.71 0.70 0.71 0.72 0.66 0.65 0.69 0.68 0.73 0.55 0.35 0.33 0.35 0.38 0.40 0.42 0.46 0.52 0.62 0.67 0.70 0.71 0.67 0.67 0.94 1.28 1.80 2.40 2.94 3.41 3.68 3.40 2.97 2.64 2.49
0.87 0.82 0.83 0.86 0.90 0.85 0.77 0.72 0.71 0.73 0.73 0.73 0.74 0.69 0.62 0.55 0.57 0.67 0.49 0.34 0.34 0.33 0.33 0.37 0.39 0.42 0.47 0.55 0.62 0.70 0.78 0.80 0.96 1.17 1.43 1.90 2.54 3.31 3.88 3.91 3.56 3.16 2.85
1.03 0.94 0.91 0.86 0.84 0.80 0.77 0.75 0.74 0.75 0.74 0.73 0.73 0.73 0.72 0.70 0.60 0.64 0.59 0.39 0.35 0.34 0.34 0.36 0.40 0.45 0.51 0.58 0.63 0.79 0.85 0.90 1.01 1.17 1.22 1.45 1.89 2.60 3.49 3.96 3.90 3.62 3.32
1.08 0.98 0.93 0.88 0.85 0.82 0.77 0.76 0.77 0.77 0.78 0.81 0.79 0.76 0.72 0.65 0.61 0.69 0.74 0.55 0.40 0.32 0.33 0.35 0.37 0.44 0.54 0.61 0.66 0.76 0.77 0.80 0.88 1.02 1.07 1.08 1.24 1.72 2.57 3.49 4.02 4.01 3.82
1.15 1.05 1.02 0.99 0.91 0.86 0.86 0.82 0.80 0.78 0.78 0.80 0.78 0.78 0.80 0.71 0.67 0.71 0.80 0.87 0.76 0.48 0.36 0.32 0.30 0.36 0.48 0.56 0.66 0.76 0.70 0.74 0.75 0.85 0.97 1.01 1.01 1.15 1.63 2.49 3.42 4.06 4.14
1.25 1.19 1.12 1.08 1.03 0.99 1.01 1.01 0.93 0.85 0.83 0.80 0.78 0.80 0.83 0.78 0.75 0.72 0.74 0.90 1.15 0.98 0.54 0.32 0.30 0.33 0.43 0.54 0.65 0.69 0.65 0.72 0.75 0.78 0.87 0.96 1.02 1.08 1.24 1.60 2.33 3.24 3.97
1.26 1.25 1.23 1.14 1.06 1.03 1.06 1.14 1.09 0.97 0.93 0.89 0.86 0.85 0.86 0.83 0.81 0.79 0.80 0.82 0.96 1.12 0.83 0.37 0.31 0.32 0.42 0.54 0.64 0.65 0.62 0.69 0.72 0.76 0.79 0.85 0.95 1.07 1.18 1.33 1.67 2.38 3.19
1.26 1.26 1.23 1.18 1.10 1.08 1.08 1.10 1.11 1.10 1.08 1.02 1.00 1.00 0.93 0.89 0.93 0.89 0.87 0.87 0.88 1.01 1.03 0.49 0.32 0.36 0.49 0.60 0.64 0.62 0.60 0.60 0.60 0.70 0.75 0.79 0.84 0.94 1.08 1.21 1.38 1.77 2.46
1.09 1.18 1.24 1.25 1.18 1.12 1.14 1.19 1.16 1.14 1.15 1.14 1.11 1.09 1.05 1.03 1.01 0.97 1.01 0.98 0.91 0.89 1.01 0.77 0.45 0.42 0.49 0.57 0.64 0.68 0.66 0.64 0.60 0.67 0.71 0.78 0.84 0.91 0.99 1.10 1.24 1.42 1.80
1.15 1.16 1.20 1.23 1.20 1.20 1.23 1.23 1.23 1.20 1.17 1.15 1.16 1.19 1.16 1.16 1.14 1.09 1.09 1.10 1.04 0.95 0.97 0.97 0.67 0.50 0.54 0.61 0.72 0.76 0.76 0.78 0.73 0.75 0.76 0.80 0.88 0.94 0.99 1.07 1.19 1.32 1.43
1.27 1.30 1.29 1.28 1.25 1.26 1.49 1.55 1.43 1.35 1.26 1.20 1.18 1.22 1.25 1.28 1.28 1.29 1.35 1.33 1.31 1.31 1.22 1.17 0.95 0.73 0.70 0.72 0.82 0.86 0.84 0.82 0.84 0.80 0.84 0.82 0.86 0.91 0.94 0.97 1.01 1.09 1.25
1.41 1.38 1.40 1.37 1.37 1.45 1.73 1.87 1.65 1.52 1.43 1.35 1.27 1.25 1.26 1.37 1.52 1.68 1.81 1.73 1.62 1.66 1.59 1.51 1.31 1.08 0.93 0.93 1.02 0.95 0.96 0.88 0.91 0.91 0.88 0.82 0.80 0.77 0.81 0.92 1.03 1.10 1.18
1.52 1.48 1.39 1.34 1.31 1.45 1.85 1.93 1.64 1.43 1.28 1.26 1.23 1.17 1.18 1.26 1.34 1.48 1.67 1.70 1.69 1.81 1.88 1.80 1.61 1.38 1.09 0.98 1.09 1.23 1.30 1.32 1.20 0.99 1.00 0.98 0.91 0.90 0.87 0.88 1.04 1.12 1.22
1.38 1.36 1.32 1.26 1.19 1.23 1.68 1.81 1.54 1.20 1.06 1.06 1.04 1.01 1.01 1.07 1.19 1.11 1.25 1.34 1.40 1.50 1.67 1.79 1.84 1.53 1.29 1.19 1.41 1.60 1.58 1.53 1.25 1.05 1.20 1.31 1.17 1.11 1.02 1.05 1.16 1.12 1.20
1.27 1.24 1.16 1.09 1.06 1.13 1.52 1.75 1.56 1.08 0.95 0.96 0.97 0.96 0.94 0.94 1.03 1.20 1.26 1.23 1.13 1.14 1.33 1.51 1.68 1.57 1.46 1.51 1.79 2.05 2.09 2.07 1.72 1.38 1.34 1.56 1.39 1.32 1.26 1.21 1.23 1.15 1.18
1.03 1.08 1.07 1.00 0.96 0.99 1.31 1.66 1.58 1.16 1.09 1.02 1.00 1.02 1.03 0.95 1.11 1.34 1.37 1.31 1.14 1.03 1.12 1.36 1.57 1.67 1.76 1.92 2.16 2.49 2.60 2.66 2.44 1.94 1.64 1.67 1.57 1.50 1.49 1.44 1.39 1.32 1.24
0.86 0.88 0.93 0.95 0.91 0.89 1.09 1.45 1.60 1.23 1.14 1.05 1.02 1.07 1.24 1.21 1.25 1.34 1.36 1.42 1.39 1.12 0.99 1.07 1.16 1.27 1.36 1.53 1.88 2.12 2.32 2.57 2.51 2.34 1.89 1.81 1.81 1.80 1.97 1.64 1.40 1.30 1.24